Location: Bennemühlen
(52.5740°N, 9.7135°E)
Time: 02:15:36
(UTC+00:00)

A-11 Canister half - Pass Details

Date: 24 February 2026
Orbit: 1513 x 1687 km, 47.2° (Epoch: 13 March)

Event Time Altitude Azimuth Distance (km) Brightness Sun altitude
Rises 22:17:03 0° 271° (W) 4,938 11.9 -43.9°
Reaches altitude 10° 22:20:17 10° 269° (W) 3,941 11.3 -44.1°
Enters shadow 22:24:20 28° 261° (W) 2,768 10.3 -44.4°
Maximum altitude 22:30:10 62° 192° (SSW) 1,822 - -44.7°
Drops below altitude 10° 22:39:45 10° 115° (ESE) 3,823 - -45.2°
Sets 22:42:50 0° 112° (ESE) 4,784 - -45.4°
